Hourly Data Report for August 11, 2020

LYTTON RCS
BRITISH COLUMBIA
Current Station Operator: ECCC - MSC

50°13'28.000" N
121°34'55.000" W
225.00 m
1114746
71765
VLY

Download Data

Hourly Data (August 2020)
Hourly Data Report for August 11, 2020
TIME Temp Definition
°C
Dew Point Definition
°C
Rel Hum Definition
%
Wind Dir Definition
10's deg

Wind Spd Definition
km/h
Visibility Definition
km
Stn Press Definition
kPa
Hmdx Definition


Wind Chill Definition


Weather Definition


00:00 20.4 11.7 57 19 22   98.42     LegendNANA
01:00 19.8 11.7 60 18 22   98.40     LegendNANA
02:00 19.3 11.5 61 19 20   98.38     LegendNANA
03:00 19.0 11.2 60 19 22   98.38     LegendNANA
04:00 18.4 10.6 60 19 22   98.36     LegendNANA
05:00 18.2 10.0 59 19 20   98.34     LegendNANA
06:00 17.6 9.4 59 19 26   98.37     LegendNANA
07:00 17.3 9.2 59 19 28   98.33     LegendNANA
08:00 19.0 8.3 50 18 39   98.28     LegendNANA
09:00 20.6 7.2 42 19 26   98.21     LegendNANA
10:00 23.0 6.5 34 18 33   98.12     LegendNANA
11:00 24.8 6.8 32 19 32   98.03 25   LegendNANA
12:00 25.3 5.9 29 18 32   97.99 25   LegendNANA
13:00 26.9 5.3 25 18 41   97.86 26   LegendNANA
14:00 26.6 4.6 24 18 42   97.86 26   LegendNANA
15:00 26.4 4.5 25 18 45   97.83 26   LegendNANA
16:00 25.5 4.1 25 18 34   97.79     LegendNANA
17:00 23.9 4.4 28 18 36   97.78     LegendNANA
18:00 22.7 4.9 32 18 40   97.82     LegendNANA
19:00 21.4 4.8 34 18 29   97.90     LegendNANA
20:00 20.9 5.0 35 18 24   98.02     LegendNANA
21:00 19.8 5.5 39 19 20   98.14     LegendNANA
22:00 18.9 6.1 43 19 13   98.25     LegendNANA
23:00 17.7 6.4 47 15 5   98.34     LegendNANA

Notes on Data Quality.

Legend

  • E = Estimated
  • M = Missing
  • NA = Not Available*
  • [empty] = Indicates an unobserved value
Date modified: